Date String (YYYY-MM-DD hh:mm:ss) UTC,Instrument flags,absolute air pressure of the measurement (hPa),sample flow rate (lpm),inlet stack bypass flow (lpm),air temperature of the measurement (°C),ambient temperature measured by the external sensor (°C),aerosol sample conditioner tube jacket temperature (°C),OPC LED temperature (°C),internal box temperature (°C),relative humidity of the measurement (%),span deviation,mass concentration of particles derived from Lorenz-Mie calculation of OPC scattering (μg/m³),mass concentration of particles derived from Lorenz-Mie calculation of OPC scattering (μg/m³),mass concentration of particles derived from Lorenz-Mie calculation of OPC scattering (μg/m³)
DateTimeUTC,F1_M11,P_M11,Q1_M11,Q2_M11,T1_M11,T2_M11,T3_M11,T4_M11,T5_M11,U1_M11,ZSPAN_M11,X0_M11,X2_M11,X1_M11
2023-09-26 05:00:00,SystemResetWarning,0836.6,5.00,000.00,028.7,027.5,000.0,037.0,030.4,13.8,-000.5,0014.02,0004.40,0003.60
2023-09-26 05:01:00,SystemResetWarning,0836.5,5.00,000.00,028.7,027.5,000.0,037.0,030.4,14.1,0000.0,0014.10,0004.36,0003.60
2023-09-26 05:02:00,SystemResetWarning,0836.4,4.99,000.00,028.7,027.6,000.0,037.0,030.4,14.3,0000.0,0014.42,0004.40,0003.60
2023-09-26 05:03:00,SystemResetWarning,0836.3,5.00,000.00,028.7,027.6,000.0,037.0,030.4,14.3,0000.0,0014.77,0004.44,0003.61
2023-09-26 05:04:00,SystemResetWarning,0836.3,5.00,000.00,028.7,027.6,000.0,037.0,030.5,14.2,0000.0,0015.38,0004.47,0003.62
2023-09-26 05:05:00,SystemResetWarning,0836.3,4.99,000.00,028.8,027.6,000.0,037.0,030.5,13.5,0000.0,0015.31,0004.44,0003.63
2023-09-26 05:06:00,SystemResetWarning,0836.4,5.01,000.00,028.8,027.6,000.0,037.1,030.5,13.4,0000.0,0015.12,0004.45,0003.63
2023-09-26 05:07:00,SystemResetWarning,0836.4,5.00,000.00,028.8,027.7,000.0,037.1,030.5,13.5,0000.0,0014.99,0004.48,0003.64
2023-09-26 05:08:00,SystemResetWarning,0836.5,5.00,000.00,028.8,027.7,000.0,037.1,030.6,13.6,0000.0,0013.79,0004.48,0003.65
2023-09-26 05:09:00,SystemResetWarning,0836.5,5.00,000.00,028.8,027.7,000.0,037.1,030.6,13.4,0000.0,0013.29,0004.48,0003.64
2023-09-26 05:10:00,SystemResetWarning,0836.5,5.00,000.00,028.9,027.7,000.0,037.1,030.6,13.4,0000.0,0013.50,0004.51,0003.64
2023-09-26 05:11:00,SystemResetWarning,0836.4,4.98,000.00,028.9,026.6,000.0,037.1,030.5,13.3,0000.0,0013.37,0004.55,0003.65
2023-09-26 05:12:00,SystemResetWarning,0836.3,5.00,000.00,028.8,024.8,000.0,037.1,030.3,13.1,0000.0,0013.69,0004.59,0003.65
2023-09-26 05:13:00,SystemResetWarning,0836.3,5.01,000.00,028.7,024.4,000.0,037.1,030.1,13.1,0000.0,0013.38,0004.60,0003.66
2023-09-26 05:14:00,SystemResetWarning,0836.3,5.00,000.00,028.5,024.6,000.0,037.0,029.9,13.1,0000.0,0013.05,0004.60,0003.66
2023-09-26 05:15:00,SystemResetWarning,0836.3,5.00,000.00,028.5,025.0,000.0,037.0,029.8,13.1,0000.0,0011.77,0004.60,0003.65
2023-09-26 05:16:00,SystemResetWarning,0836.3,5.00,000.00,028.4,025.3,000.0,037.0,029.8,13.1,0000.0,0011.45,0004.61,0003.64
2023-09-26 05:17:00,SystemResetWarning,0836.4,5.00,000.00,028.4,025.7,000.0,036.9,029.9,13.2,0000.0,0010.96,0004.61,0003.65
2023-09-26 05:18:00,SystemResetWarning,0836.3,5.00,000.00,028.4,026.0,000.0,036.9,029.9,13.1,0000.0,0010.67,0004.59,0003.65
2023-09-26 05:19:00,SystemResetWarning,0836.4,5.00,000.00,028.4,026.3,000.0,036.9,029.9,13.1,0000.0,0010.69,0004.61,0003.65
2023-09-26 05:20:00,SystemResetWarning,0836.4,5.00,000.00,028.4,026.5,000.0,036.9,029.9,13.0,0000.0,0010.82,0004.60,0003.67
2023-09-26 05:21:00,SystemResetWarning,0836.4,5.00,000.00,028.4,026.7,000.0,036.9,030.0,13.0,0000.0,0011.47,0004.56,0003.69
2023-09-26 05:22:00,SystemResetWarning,0836.3,5.00,000.00,028.4,026.8,000.0,036.9,030.0,12.9,0002.7,0010.86,0004.53,0003.69
2023-09-26 05:23:00,SystemResetWarning,0836.4,4.99,000.00,028.4,026.9,000.0,036.9,030.0,12.5,0003.2,0010.42,0004.56,0003.69
2023-09-26 05:24:00,SystemResetWarning,0836.4,4.99,000.00,028.4,027.0,000.0,036.9,030.0,12.2,0003.3,0010.60,0004.61,0003.69
2023-09-26 05:25:00,SystemResetWarning,0836.3,5.00,000.00,028.4,027.1,000.0,036.9,030.1,12.6,0003.3,0010.67,0004.63,0003.70
2023-09-26 05:26:00,SystemResetWarning,0836.4,5.00,000.00,028.5,027.1,000.0,036.9,030.1,12.9,0002.4,0010.73,0004.63,0003.73
2023-09-26 05:27:00,SystemResetWarning,0836.4,5.00,000.00,028.5,027.2,000.0,036.9,030.1,12.6,0000.0,0010.73,0004.63,0003.74
2023-09-26 05:28:00,SystemResetWarning,0836.4,5.01,000.00,028.5,027.2,000.0,036.9,030.1,12.7,0000.0,0010.83,0004.64,0003.75
2023-09-26 05:29:00,SystemResetWarning,0836.4,5.00,000.00,028.5,027.2,000.0,036.9,030.1,12.9,0000.0,0011.61,0004.69,0003.75
2023-09-26 05:30:00,SystemResetWarning,0836.4,5.00,000.00,028.5,027.2,000.0,036.9,030.1,13.1,0000.0,0013.13,0004.73,0003.77
2023-09-26 05:31:00,SystemResetWarning,0836.4,5.00,000.00,028.5,027.3,000.0,036.9,030.1,13.2,0000.0,0013.51,0004.80,0003.78
2023-09-26 05:32:00,SystemResetWarning,0836.3,5.00,000.00,028.5,027.3,000.0,036.9,030.2,13.3,0000.0,0012.68,0004.86,0003.80
2023-09-26 05:33:00,SystemResetWarning,0836.4,5.00,000.00,028.5,027.3,000.0,036.9,030.2,13.3,0000.0,0013.46,0004.90,0003.81
2023-09-26 05:34:00,SystemResetWarning,0836.4,5.00,000.00,028.6,027.3,000.0,036.9,030.2,13.3,0000.0,0013.93,0004.91,0003.82
2023-09-26 05:35:00,SystemResetWarning,0836.4,5.00,000.00,028.6,027.3,000.0,036.9,030.2,13.2,0000.0,0014.47,0004.89,0003.83
2023-09-26 05:36:00,SystemResetWarning,0836.3,5.00,000.00,028.6,027.3,000.0,036.9,030.2,13.1,0000.3,0014.98,0004.92,0003.83
2023-09-26 05:37:00,SystemResetWarning,0836.2,5.00,000.00,028.6,027.3,000.0,036.9,030.2,12.9,0000.4,0015.75,0004.97,0003.82
2023-09-26 05:38:00,SystemResetWarning,0836.2,5.00,000.00,028.6,027.3,000.0,036.9,030.2,13.0,0001.4,0015.90,0005.04,0003.83
2023-09-26 05:39:00,SystemResetWarning,0836.2,5.00,000.00,028.6,027.3,000.0,037.0,030.2,13.0,0001.2,0016.20,0005.05,0003.83
2023-09-26 05:40:00,SystemResetWarning,0836.2,5.01,000.00,028.6,027.3,000.0,037.0,030.2,12.8,0001.6,0016.09,0005.03,0003.84
2023-09-26 05:41:00,SystemResetWarning,0836.2,5.00,000.00,028.6,027.3,000.0,037.0,030.2,12.7,0001.0,0014.41,0004.99,0003.83
2023-09-26 05:42:00,SystemResetWarning,0836.2,5.00,000.00,028.6,027.3,000.0,037.0,030.2,12.7,0000.0,0014.10,0004.98,0003.81
2023-09-26 05:43:00,SystemResetWarning,0836.2,5.00,000.00,028.6,027.3,000.0,037.0,030.2,12.8,0000.4,0014.77,0004.99,0003.79
2023-09-26 05:44:00,SystemResetWarning,0836.2,5.00,000.00,028.6,027.3,000.0,037.0,030.2,12.7,0000.0,0014.21,0005.01,0003.78
2023-09-26 05:45:00,SystemResetWarning,0836.2,5.00,000.00,028.6,027.3,000.0,037.0,030.2,12.5,0000.0,0014.00,0004.97,0003.78
2023-09-26 05:46:00,SystemResetWarning,0836.2,5.00,000.00,028.7,027.3,000.0,037.0,030.2,12.4,0000.0,0013.95,0004.95,0003.77
2023-09-26 05:47:00,SystemResetWarning,0836.2,5.00,000.00,028.7,027.3,000.0,037.0,030.2,12.5,0000.0,0013.60,0004.92,0003.77
2023-09-26 05:48:00,SystemResetWarning,0836.2,5.00,000.00,028.7,027.4,000.0,037.1,030.3,12.3,0000.0,0013.71,0004.86,0003.77
2023-09-26 05:49:00,SystemResetWarning,0836.2,5.00,000.00,028.7,027.4,000.0,037.1,030.3,12.3,0000.0,0014.00,0004.81,0003.76
2023-09-26 05:50:00,SystemResetWarning,0836.2,5.00,000.00,028.7,027.4,000.0,037.1,030.3,12.4,0000.0,0014.31,0004.79,0003.75
2023-09-26 05:51:00,SystemResetWarning,0836.2,5.00,000.00,028.7,027.4,000.0,037.1,030.3,12.4,0000.0,0014.94,0004.76,0003.75
2023-09-26 05:52:00,SystemResetWarning,0836.2,5.00,000.00,028.7,027.4,000.0,037.1,030.3,12.3,0000.0,0016.13,0004.74,0003.74
2023-09-26 05:53:00,SystemResetWarning,0836.2,5.00,000.00,028.7,027.4,000.0,037.1,030.3,12.2,0000.0,0016.56,0004.76,0003.73
2023-09-26 05:54:00,SystemResetWarning,0836.2,5.00,000.00,028.7,027.4,000.0,037.1,030.3,12.2,0000.0,0016.02,0004.72,0003.71
2023-09-26 05:55:00,SystemResetWarning,0836.2,5.00,000.00,028.7,027.4,000.0,037.1,030.3,12.2,0000.0,0016.40,0004.72,0003.70
2023-09-26 05:56:00,SystemResetWarning,0836.2,4.99,000.00,028.7,027.4,000.0,037.1,030.4,12.1,0000.0,0016.60,0004.70,0003.68
2023-09-26 05:57:00,SystemResetWarning,0836.2,5.00,000.00,028.7,027.4,000.0,037.1,030.4,12.1,0000.0,0016.03,0004.71,0003.67
2023-09-26 05:58:00,SystemResetWarning,0836.2,4.99,000.00,028.7,026.1,000.0,037.1,030.3,12.1,0000.0,0015.88,0004.71,0003.65
2023-09-26 05:59:00,SystemResetWarning,0836.2,5.01,000.00,028.7,024.4,000.0,037.1,030.2,12.0,0000.0,0014.85,0004.70,0003.63
